Find Starlink 2121

NORAD ID: 47399 Int'l Des: 2021-005 Owner: SPXS Country: US Constellation: starlink operational
LEOCIRCULAR

Live Position

Loading 3D Globe...

About Starlink 2121

Description loading...

Upcoming Passes

Passes for default location (London). Set your location on the main map for personalized predictions.

Altitude History

Loading altitude history...

Two-Line Element Set

1 47399U 21005BC 26105.59208241 .00005279 00000-0 18172-3 0 9990
2 47399 53.1624 225.2431 0001049 72.2210 287.8906 15.31707750289041
Epoch: Apr 15, 2026 • Age: 20 hours

Current Status

Altitude 471.7 km
Velocity 7.63 km/s
Sub-Earth Point -1.71°S, 142.95°W
Launch Date Jan 20, 2021
Age 5.2 years
Type internet

Technical Details

Classification Payload
Mass 260.00 kg
Dry Mass 248.00 kg
Total Mass 260.00 kg
Length 0.20 m
Diameter 2.80 m
Span 9.00 m
Shape Box + pan
Manufacturer SPXS
Bus Type Starlink
Phase Status In Orbit
Owner/State SPXS/US

Most Searched